Regional Weather Roundup
Issued by NWS Wakefield, VA

Home | Current Version | Previous Version | Graphics & Text | Print | Product List | Glossary On
Versions: 1 2 3 4 5 6 7 8 9 10 11 12 13 14 15 16 17 18 19 20 21 22 23 24 25 26 27 28 29 30 31 32 33 34 35 36 37 38 39 40 41 42 43 44 45 46 47 48 49 50
000
ASUS41 KAKQ 011515
RWRAKQ

REGIONAL WEATHER ROUNDUP
NATIONAL WEATHER SERVICE WAKEFIELD VA
1100 AM EDT MON JUN 01 2015

Note: "fair" indicates few or no clouds below 12,000 feet with no
significant weather and/or obstructions to visibility. * = Denotes
station may not report precipitation (e.g., rain,snow,etc.),
thunder or fog.

VAZ042-051-052>054-056-011600-
NORTHERN VIRGINIA

CITY           SKY/WX    TMP DP  RH WIND       PRES   REMARKS
WASH NATIONAL  CLOUDY    83  70  64 S8        30.02F
DULLES         PTSUNNY   80  68  66 CALM      30.02F
FORT BELVOIR   MOSUNNY   81  69  66 VRB5      30.02F
QUANTICO       MOSUNNY   75  68  78 S7        30.03F
FREDERICKSBRG* MOSUNNY   84  68  58 SW7       30.02S
STAFFORD*      MOSUNNY   79  69  69 SW3       30.07S
WARRENTON      MOSUNNY   84  71  64 S3        30.02F
CULPEPER*      SUNNY     81  68  64 S5        30.03F
MANASSAS*      MOSUNNY  N/A  70   0 S3        30.02F
LEESBURG*      SUNNY     82  70  65 N3        30.03S
WINCHESTER     MOSUNNY   82  64  54 S6        30.03S
FRONT ROYAL*   FAIR      79  68  69 SW5       30.03S
LURAY*         FAIR      82  68  61 SW5       30.05S
$$

VAZ048-049-060>072-079>083-011600-
CENTRAL AND SOUTH CENTRAL VIRGINIA

CITY           SKY/WX    TMP DP  RH WIND       PRES   REMARKS
RICHMOND       PTSUNNY   83  68  60 S7        30.04F
CHESTERFIELD*  NOT AVBL
PETERSBURG*    MOSUNNY   82  74  77 S7        30.06F
HANOVER        SUNNY     84  68  58 SW8       30.05F
TAPPAHANNOCK*  SUNNY     83  64  51 S8        30.05S
QUINTON*       FAIR      80  69  68 S6        30.05S
CHARLOTTSVILLE SUNNY     81  66  60 SW5       30.04S
GORDONSVILLE*  FAIR      79  70  73 SW7       30.04R
ORANGE*        SUNNY     82  70  65 S7        30.05S
LOUISA*        SUNNY     84  66  54 SW6       30.03S
BUMPASS*       FAIR      82  68  62 SW7       30.04S
FARMVILLE*     SUNNY     83  68  60 SW5       30.04S
CREWE*         FAIR      82  69  66 S3        30.05S
FORT PICKETT*  FAIR      82  70  68 S7        30.06S
CHASE CITY*    FAIR      83  73  70 SW5       30.07S
CLARKSVILLE*   NOT AVBL
SOUTH HILL*    SUNNY     83  69  64 S7        30.12S
LAWRENCEVILLE* FAIR      82  70  65 S8        30.06F
EMPORIA*       SUNNY     81  68  65 S5        30.08S
$$

VAZ088>098-011600-
SOUTHEAST VIRGINIA

CITY           SKY/WX    TMP DP  RH WIND       PRES   REMARKS
NORFOLK        SUNNY     85  67  54 SW12      30.06F
VIRGINIA BEACH MOSUNNY   86  68  54 SW12      30.07S
NORFOLK NAVAL  MOSUNNY   88  68  51 S10G17    30.07F
WEST POINT*    SUNNY     85  66  52 S9        30.06F
SALUDA*        FAIR      82  69  66 SW3       30.05S
NEWPORT NEWS   SUNNY     87  71  58 S9        30.06F
LANGLEY AFB    SUNNY     83  70  64 S10       30.05F
FORT EUSTIS    SUNNY     82  71  69 S7        30.04F
WILLIAMSBURG*  SUNNY     86  73  66 SW6       30.06F
HR EXEC AP*    FAIR      84  70  61 S6        30.08F
FRANKLIN*      MOSUNNY   83  69  61 SW8       30.07F
WAKEFIELD      SUNNY     82  70  66 S6        30.06F
$$

VAZ020-022-025-037-045-011600-
WEST CENTRAL AND SOUTHWEST VIRGINIA

CITY           SKY/WX    TMP DP  RH WIND       PRES   REMARKS
STAUNTON*      PTSUNNY   81  66  60 SW6       30.08F
WAYNESBORO*    FAIR      76  65  68 W8        30.09S
HOT SPRINGS VA CLOUDY    66  63  89 W8        30.18S
LYNCHBURG      SUNNY     80  65  59 VRB6      30.07F
DANVILLE       SUNNY     81  67  62 W7        30.07F
SOUTH BOSTON*  FAIR      81  70  69 MISG      30.06F
MARTINSVILLE   MOSUNNY   80  65  60 CALM      30.10S
ROANOKE        CLOUDY    77  64  64 W7        30.09F
BLACKSBURG     CLOUDY    73  64  72 CALM      30.15F
DUBLIN*        PTSUNNY   74  65  74 CALM      30.13S
MARION*        PTSUNNY   76  62  61 CALM      30.15F
HILLSVILLE*    CLOUDY    71  63  77 S3        30.17S
RICHLANDS*     PTSUNNY   71  61  71 NW5       30.13S
WISE*          CLOUDY    72  59  64 E3        30.14S
ABINGDON*      CLOUDY    76  61  58 S3        30.11S
$$

MDZ021>025-VAZ099-100-011600-
SOUTHERN MARYLAND AND THE DELMARVA PENINSULA

CITY           SKY/WX    TMP DP  RH WIND       PRES   REMARKS
PATUXENT RIVER PTSUNNY   84  66  54 VRB7      30.03S
BAY BRIDGE APT NOT AVBL
LEONARDTOWN    SUNNY     79  64  61 SW7       30.05F
DOVER          MOSUNNY   84  71  65 SW8       30.01S
GEORGETOWN     SUNNY     84  69  60 S10       30.04F
EASTON         MOSUNNY   82  70  65 SW10G22   30.07F
CAMBRIDGE      MOSUNNY   81  68  65 S6        30.04S
SALISBURY      SUNNY     83  69  62 SW12      30.04F
OCEAN CITY     SUNNY     75  67  76 S10       30.06S
WALLOPS ISLAND PTSUNNY   78  71  79 S15       30.07S
ACCOMACK*      SUNNY     82  72  69 SW9       30.06S
$$

NCZ012>017-030>032-011600-
NORTH CENTRAL AND EASTERN NORTH CAROLINA

CITY           SKY/WX    TMP DP  RH WIND       PRES   REMARKS
ROANOKE RAPIDS FAIR      82  68  61 S8        30.07F
RALEIGH        MOSUNNY   83  68  60 SW8       30.08F
ELIZABETH CITY SUNNY     81  68  64 S10       30.09F
AHOSKIE*       SUNNY     81  69  66 SE6       30.07F
EDENTON*         N/A     81  69  67 S8        30.09F
CURRITUCK*     SUNNY     82  65  57 SW9       30.10S
KILL DEVIL HLS MOSUNNY   82  68  63 CALM      30.09S
MANTEO         MOSUNNY   80  68  68 S6        30.11S
CAPE HATTERAS  SUNNY     80  66  62 SW6       30.12S
TARBORO*       FAIR      84  69  60 SW7       30.09S
GOLDSBORO      SUNNY     83  67  58 S2        30.07S
WASHINGTON     SUNNY     80  67  64 S7        30.10S
GREENVILLE     SUNNY     82  70  65 S6        30.10F
NEW BERN       MOSUNNY   83  66  56 SW6       30.11F
WILMINGTON     SUNNY     83  69  62 NE3       30.10F
$$

VAZ048-011600-
ELSEWHERE

CITY           SKY/WX    TMP DP  RH WIND       PRES   REMARKS
HARRISBURG PA  CLOUDY    75  68  78 CALM      30.03S
BALTIMORE      MOSUNNY   81  68  64 NW3       30.01F
ANNAPOLIS      PTSUNNY   80  69  69 MISG      30.02S
ANDREWS AFB    MOSUNNY   83  68  61 SW6       30.02F
PHILADELPHIA   CLOUDY    70  65  84 NE9       30.05F HAZE
HENDERSON NC   SUNNY     83  65  53 S8        30.07S
GREENSBORO     PTSUNNY   79  65  62 SW7       30.08S
ROCKY MOUNT    SUNNY     84  69  60 SW10      30.08F
$$

VAZ100-011600-
MARINE

STATION/POSITION TIME  TEMP    WIND        PRES    WAVE   SWELL
                       AIR SEA DIR/SP/G            HT/PER HT/PER
                 (UTC) (F)     (DEG/KT/KT) (MB)    (FT/S) (FT/S)
BRANDYWINE LGT   1400   69 64  170/  7/  9 1017.5F
CAPE MAY NJ      1400   73 69  160/  7/  9 1017.3F
LEWES DE         1400   80 61  240/  5/  8 1017.1F
15NM E FENWICK I 1450   69 65              1017.8    4/ 9
OCEAN-CITY-INLET 1400   64 58  200/ 10/ 13 1017.7F
WACHAPREAGUE VA  1400   76 77  220/ 11/ 14 1018.1F
THOMAS POINT MD  1500   74 73  160/  9/  9 1017.2F
GOOSES REEF MD   1500   76 73  210/  2/  4 1017.8F   2/ 3
COVE POINT MD    1400   76     240/  8/ 11 1017.7F
SOLOMONS ISLAND  1400      72                N/A
BISHOPS HEAD MD  1400   76 76  220/  8/ 12 1017.3F
PINEY POINT MD   1400          260/  4/  6   N/A
CAMBRIDGE MD     1400   79 75  180/  7/ 10 1016.9F
LEWISETTA VA     1400   78 76              1017.0F
RAPPAHANNOCK LGT 1400          190/ 13/ 15 1018.5F
STINGRAY PT      1500   77 75  200/  6/  6 1018.2F   1
YORK RVR RNG VA  1400   79     260/  8/  9 1017.5R
YORKTOWN VA      1400   78 74  220/  5/ 10 1017.7R
JAMESTOWN VA     1500   80 80  220/  4/  6   N/A
DOMINION TERM VA 1400   77     210/  9/ 11 1018.3F
KIPTOPEKE VA     1400      76  190/  7/  8   N/A
CHES BAY BRIDGE  1400   77 72  200/ 11/ 12 1017.9F
CAPE HENRY VA    1400   80     220/  9/ 14 1017.2F
CHESAPEAKE LGHT  1400   70     200/ 16/ 17 1019.1F
WILLOUBY STN VA  1400   78     220/ 13/ 15 1018.9F
CAPE HENRY BUOY  1428      69                N/A     3/ 9
1ST LANDING BUOY 1500      72              1017.8F
CAPE CHARLES BUO 1426      64                N/A     2/ 9   2/ 9
OFFSHORE WE BUOY 1411      69                N/A     3/ 9   2/ 9
64NM E OF VA BCH 1450   73 73  190/  6/  6 1019.3R   3/ 9   3/ 9
DUCK PIER NC     1400   77 54  220/ 10/ 12 1018.4F
44100 DUCK FRF   1424      74                N/A     3/ 9
44056 DUCK FRF   1411      61                N/A     3/ 9   2/11
OREGON INLET NC  1400   77 77  180/  6/  9 1019.5F
HATTERAS NC      1400   79 78  200/  4/  7 1019.6S
DIAMOND SHLS NC  1450   76 80  280/  4/  6 1020.1S   4/ 9   3/ 9
CAPE LOOKOUT NC  1500   78      CALM  /  1 1019.5F
$$


USA.gov is the U.S. government's official web portal to all federal, state and local government web resources and services.